User: anonymous   Login
Location: Steinbach
(49.5170°N, 96.6830°W)
Time: 18:19:32
(UTC-05:00)
Language:

NOSS 3-4 (A) - Orbit

View from above orbital plane
View from above orbital plane
View from above satellite
View from above satellite

Ground track
Ground track

The orbit data is extracted from the following two-line orbital elements,

1 31701U 07027A   15140.98642002 0.00000000  00000-0  00000-0 0    03
2 31701  63.4020 215.7297 0131000  32.2362 327.7638 13.40679585    09
Epoch (UTC): 20 May 2015 23:40:26
Eccentricity: 0.0131000
inclination: 63.4020°
perigee height: 1008 km
apogee height: 1205 km
right ascension of ascending node: 215.7297°
argument of perigee: 32.2362°
revolutions per day: 13.40679585
mean anomaly at epoch: 327.7638°
orbit number at epoch: 0

The dashed part of the orbit path shows where the satellite is in the earth's shadow,  

DLR